Wind_Speed
16 16 16 15 14 14 15 15 15 15 15 14 14 14 13 12 13 13 12 14 14 12 11 11 10 9 7 7 8 8 7 6 6 6 5 6 6 7 8 8 9 9
16 16 16 16 16 15 15 15 15 15 15 15 14 15 15 14 14 14 13 13 15 14 13 13 12 11 10 9 9 8 8 8 8 8 7 8 8 8 8 8 9 10
16 17 17 16 16 16 16 15 16 16 15 15 15 14 15 14 15 15 14 14 13 14 14 14 13 12 12 11 10 9 9 10 10 9 9 9 8 8 8 9 10 10
18 17 17 17 16 17 17 16 16 16 15 15 15 14 13 14 15 16 16 16 14 14 14 15 14 13 13 13 12 12 11 11 11 10 10 10 9 9 9 9 10 10
19 19 18 17 17 17 17 17 16 16 16 15 16 16 15 14 14 15 17 17 16 15 14 14 15 14 14 14 14 13 12 11 12 12 12 11 10 9 10 10 10 11
20 20 19 18 18 18 18 18 17 16 16 16 16 16 17 16 14 14 15 16 17 16 15 15 15 15 15 15 15 14 13 12 13 13 14 14 12 10 10 10 11 10
19 20 19 19 18 18 18 18 18 18 18 17 17 16 17 17 17 16 15 15 16 16 16 16 17 16 15 15 16 16 15 14 13 12 12 13 13 12 11 11 11 10
18 19 19 20 19 19 19 19 18 19 19 18 18 18 17 17 18 18 17 16 16 16 16 17 18 18 17 16 16 17 16 14 14 13 13 13 13 13 13 12 12 12
16 17 18 18 19 19 19 19 19 18 19 19 18 18 19 19 18 18 19 19 18 18 17 17 17 18 18 17 16 16 16 15 14 14 14 15 14 14 13 12 12 13
10 13 16 18 19 20 19 19 19 18 18 19 19 18 18 19 20 19 19 20 20 19 19 18 16 16 16 17 17 16 16 16 16 15 15 14 14 14 13 12 12 13
9 14 13 14 15 16 17 18 18 19 18 17 18 18 18 17 19 20 19 19 20 19 19 18 17 17 16 16 17 17 17 17 17 16 16 15 14 14 13 13 13 13
11 14 15 14 13 14 14 14 16 18 18 19 18 17 18 17 17 19 19 19 19 18 18 18 18 18 18 17 17 17 17 17 17 17 17 16 16 15 14 14 14 13
14 14 13 15 16 15 13 11 16 22 19 17 18 19 19 18 18 18 18 18 17 17 17 17 17 17 18 18 18 18 18 18 17 17 16 16 16 16 15 14 13 13
11 13 11 12 14 15 13 11 14 20 22 20 16 16 18 18 17 16 16 17 17 17 17 17 16 16 17 18 19 19 18 18 17 17 16 16 15 15 14 13 13 12
10 10 11 12 12 12 13 14 14 13 15 20 22 16 13 13 13 14 14 13 15 18 18 15 13 12 13 15 17 19 18 17 17 16 16 16 14 14 14 12 11 10
9 11 12 13 12 11 10 12 11 9 10 15 18 16 13 10 11 14 13 8 8 13 15 15 14 13 14 14 15 18 18 18 17 16 13 10 9 9 9 8 8 8
7 8 10 12 12 11 10 9 9 8 8 10 13 13 16 17 14 14 14 11 8 8 11 15 19 19 19 17 14 14 15 17 18 15 11 8 8 7 6 6 7 8
5 5 7 9 10 10 11 11 10 10 9 9 12 12 13 16 16 14 14 14 12 9 7 10 15 16 17 17 16 15 14 14 15 11 7 8 10 10 9 8 8 9
7 5 5 6 6 7 9 10 10 10 10 10 13 13 13 13 14 13 12 11 10 8 5 4 7 11 14 15 15 16 16 15 15 11 7 9 12 11 11 13 12 11
6 5 6 5 4 4 6 7 8 10 10 10 11 12 12 13 13 14 14 11 9 10 8 5 6 8 10 10 11 13 14 15 17 13 8 10 14 13 12 15 14 12
6 5 4 4 4 4 5 5 7 8 9 10 11 11 11 12 13 14 14 13 11 10 7 5 7 7 8 8 8 10 11 12 14 13 10 10 14 14 14 15 14 12
10 9 8 7 6 5 4 4 4 5 6 8 10 11 12 13 13 13 14 16 17 13 7 5 6 7 8 8 8 9 10 9 10 11 9 8 10 11 12 13 12 12
12 12 12 11 9 7 6 5 5 5 5 6 7 10 12 14 16 17 16 16 17 13 8 7 8 8 8 9 9 9 9 7 6 6 8 8 8 9 10 11 10 10
16 15 14 14 13 11 10 9 8 8 8 8 6 7 10 12 16 20 21 20 18 15 12 9 8 8 7 8 8 8 8 7 5 5 7 9 9 9 9 10 11 9
17 18 17 17 16 15 14 13 12 10 11 12 11 11 12 13 13 14 16 15 11 8 10 11 10 8 6 6 7 6 6 6 4 3 4 5 6 7 7 7 8 8
18 19 19 18 17 17 16 15 14 12 12 13 13 13 15 16 16 16 13 11 13 14 11 8 7 7 6 5 4 4 4 4 4 2 1 1 2 4 5 6 6 6
Wind_Direction
192 191 193 195 196 195 194 194 197 200 199 197 197 199 204 205 202 203 203 202 204 209 212 214 217 218 219 221 227 233 232 235 247 251 248 249 259 270 273 276 278 280
196 194 194 196 199 200 199 199 199 201 203 205 206 202 201 205 206 204 206 206 202 204 210 213 217 217 216 222 226 228 231 236 243 248 250 251 255 264 272 279 280 279
200 199 199 199 200 201 202 205 205 205 205 209 214 209 200 203 207 205 207 210 207 206 208 208 213 218 216 218 220 221 226 234 239 243 250 253 255 261 266 275 279 278
205 204 203 203 204 201 203 209 207 206 207 210 213 214 211 205 201 203 206 210 213 214 213 209 210 217 219 218 219 221 225 232 236 240 248 250 251 258 264 270 275 280
206 209 208 208 209 204 204 210 209 206 209 212 211 213 219 214 202 200 203 206 212 217 219 216 212 215 220 220 220 223 226 231 235 235 239 244 246 250 258 264 265 269
204 210 212 212 213 209 208 211 212 210 211 214 213 212 216 218 216 211 206 204 209 215 219 219 215 216 219 220 221 222 225 230 236 235 232 234 240 245 252 261 264 266
204 208 213 214 215 215 213 213 213 213 213 214 214 214 214 214 216 220 218 212 209 213 218 219 217 215 217 220 220 221 226 232 240 242 234 230 235 242 248 258 265 269
208 206 210 214 216 218 217 216 215 214 215 216 215 216 216 215 215 217 221 222 219 218 218 221 221 216 216 221 222 221 224 230 239 241 235 232 236 244 251 258 262 266
214 211 211 216 218 220 221 220 218 215 215 217 220 220 218 218 219 218 219 222 225 225 223 225 225 218 215 220 225 226 225 227 236 238 234 232 236 244 251 255 256 260
232 229 219 219 223 223 223 225 224 221 219 218 221 223 221 219 220 223 222 220 222 227 229 230 230 225 222 223 227 230 230 229 234 239 241 238 238 243 249 253 257 261
270 281 262 239 239 240 236 234 231 225 222 223 224 226 227 225 218 219 225 225 222 224 228 231 232 230 229 227 228 232 232 232 234 238 242 243 243 246 249 252 259 263
237 271 274 253 255 278 285 277 266 253 233 223 225 229 233 233 224 220 225 228 228 226 227 230 231 231 233 232 232 235 235 234 235 236 238 240 243 245 250 254 256 261
219 224 240 240 241 263 281 285 292 293 278 247 231 227 230 234 230 224 223 225 229 231 232 233 233 233 234 234 235 239 241 240 239 238 237 236 237 240 245 248 250 255
235 223 231 245 244 247 254 261 282 296 300 298 279 244 232 236 237 235 233 229 228 230 232 234 238 240 239 240 241 240 244 247 246 244 242 239 237 239 242 246 248 251
266 258 256 263 264 263 263 264 269 273 282 299 304 286 251 233 229 237 242 231 222 227 230 229 236 246 245 246 248 244 245 252 255 254 252 249 247 244 241 245 252 252
285 282 278 279 281 280 270 261 264 260 252 268 286 295 290 260 231 231 238 238 230 234 235 230 231 239 239 244 257 253 246 249 257 264 265 260 265 268 256 253 265 267
294 291 286 287 288 284 278 272 265 255 247 250 261 288 305 296 276 254 242 245 256 254 243 233 234 237 235 239 256 257 243 241 247 258 268 264 268 283 275 263 268 264
297 295 287 287 290 287 282 281 270 254 254 259 255 268 294 296 291 277 256 250 256 261 252 242 247 249 241 240 252 253 244 243 244 245 261 268 263 262 256 251 254 254
284 286 293 291 295 296 285 281 278 271 267 259 251 253 264 273 282 286 274 259 249 245 237 229 243 246 241 243 254 256 250 249 247 240 244 263 265 263 255 251 254 259
307 304 304 306 312 318 306 295 298 302 295 275 262 263 267 270 274 278 277 270 257 255 255 233 215 224 234 241 249 254 253 252 249 240 231 251 264 266 257 253 254 257
26 13 339 332 335 336 333 326 327 326 309 284 272 273 275 274 271 267 269 270 268 265 258 222 203 211 224 230 234 243 246 247 246 239 229 243 260 264 264 263 259 254
54 53 50 42 26 11 360 350 349 336 308 287 281 278 271 268 267 264 262 265 266 262 247 216 209 207 210 216 225 235 237 237 244 245 240 243 253 261 270 274 271 270
56 57 56 53 47 39 28 19 14 5 344 318 304 299 292 283 275 269 264 265 263 249 221 214 216 202 200 209 215 224 229 226 235 252 254 251 251 256 260 261 266 280
54 57 56 53 48 43 38 34 30 29 25 16 359 342 331 315 297 282 269 262 257 240 218 216 215 198 195 206 208 214 221 216 217 248 258 257 258 259 256 255 258 268
54 55 54 52 48 42 37 33 28 29 32 32 34 29 14 3 350 321 285 262 252 237 210 199 193 186 192 203 200 204 212 208 207 237 264 272 279 281 280 280 279 279
53 54 53 50 48 45 42 38 32 28 30 34 37 34 26 25 30 30 34 62 78 78 85 107 128 140 153 172 179 181 183 178 179 191 243 283 310 317 310 311 312 298
Height
812 814 814 815 816 817 818 819 820 821 822 823 824 825 826 827 828 829 830 830 831 833 833 834 835 835 836 837 837 838 838 839 839 840 840 841 841 841 841 842 841 842
812 813 814 815 815 816 817 818 819 820 821 822 822 823 825 826 827 827 828 829 830 831 832 833 833 834 835 836 836 837 837 838 838 839 840 840 841 841 841 841 841 841
811 812 812 814 814 815 816 817 818 819 819 820 821 822 823 824 825 826 827 828 828 829 830 831 832 833 833 834 835 836 836 837 837 838 839 839 839 840 840 840 840 840
809 810 811 812 813 813 815 816 816 817 818 819 820 821 821 822 823 824 825 827 827 828 829 829 830 831 832 833 834 834 835 836 836 836 837 838 838 839 839 839 839 839
808 809 810 811 811 812 813 814 815 815 817 818 818 819 820 821 822 823 824 825 826 827 828 828 829 830 831 831 832 833 834 834 834 835 835 836 837 837 837 838 838 838
806 807 808 809 810 811 811 812 813 814 815 816 817 818 819 819 820 821 822 823 824 826 826 827 827 828 829 830 830 831 832 833 833 833 833 834 835 835 835 836 836 836
805 806 807 808 809 809 810 810 811 812 813 814 815 816 817 818 819 820 821 822 823 824 824 825 826 826 827 828 828 829 830 831 831 831 832 832 833 834 834 834 834 834
803 804 806 807 807 808 808 809 809 810 811 812 813 814 815 816 817 818 819 820 821 822 823 823 824 824 826 827 827 827 828 829 829 830 830 831 831 832 832 833 833 833
803 804 805 806 806 807 807 807 808 808 810 811 811 812 813 814 815 816 817 818 819 820 821 822 822 823 824 825 825 826 826 827 828 828 828 829 830 830 831 831 832 832
803 804 804 805 805 805 805 806 806 807 808 809 809 810 811 812 813 814 815 816 817 818 819 820 821 821 822 823 824 825 825 825 826 826 827 827 828 829 829 830 830 831
803 806 807 805 805 805 805 806 806 806 806 807 808 809 809 810 811 812 813 814 815 816 817 818 819 820 821 822 823 823 824 824 825 825 825 826 826 827 828 828 829 829
802 807 809 807 805 806 806 806 806 806 806 806 806 807 808 809 809 810 811 812 813 814 815 817 818 819 819 820 821 822 822 823 823 823 824 824 825 825 826 826 827 827
800 805 807 805 805 806 807 807 808 810 809 806 806 806 806 807 808 809 810 811 812 813 814 815 816 817 818 819 820 821 821 822 822 822 822 823 823 823 824 824 825 825
801 803 804 803 804 804 805 807 809 811 810 807 806 805 805 806 806 807 809 809 810 811 813 814 815 816 817 818 819 819 820 820 821 821 821 821 822 822 823 823 823 823
799 800 801 801 801 801 802 803 804 806 807 808 809 807 805 805 805 806 808 809 809 810 811 812 814 815 815 817 817 817 818 819 820 820 820 820 820 821 821 821 822 822
797 798 799 799 799 800 800 800 800 801 803 807 811 811 807 805 805 805 807 808 808 809 810 811 811 812 813 815 816 815 816 817 818 819 819 818 819 820 819 819 820 821
796 797 797 798 798 799 800 799 800 801 801 803 805 807 807 807 806 805 805 807 808 808 809 809 809 810 811 813 814 814 814 815 815 817 817 816 816 818 818 818 818 819
796 796 796 797 797 798 799 799 800 801 801 801 800 801 805 808 808 806 805 806 807 808 808 807 807 809 809 811 812 812 812 813 814 815 815 815 815 816 817 816 816 817
795 795 795 796 797 797 798 798 799 800 801 801 800 801 802 804 806 807 807 806 806 807 807 806 807 808 808 809 810 810 811 811 812 813 813 814 815 815 815 815 815 816
795 794 795 796 796 797 797 798 799 800 800 801 801 802 802 802 804 807 809 807 806 807 807 807 806 807 807 808 809 809 809 810 810 810 811 812 813 813 813 813 814 814
794 794 795 795 795 796 796 797 798 799 800 800 800 801 803 802 803 804 806 806 805 806 806 806 805 805 806 806 807 807 808 808 809 809 809 809 810 810 811 812 812 813
795 795 795 795 795 795 795 796 797 797 798 799 799 800 800 800 800 801 801 802 803 804 805 805 804 804 805 805 805 806 806 806 808 808 808 808 809 809 810 810 812 813
796 796 796 796 796 796 796 796 796 797 797 797 798 799 799 799 799 799 799 799 800 802 803 803 803 803 804 804 804 804 805 805 806 807 808 808 808 808 808 808 810 812
797 798 798 798 797 797 797 796 796 796 796 796 797 798 798 799 798 797 797 798 799 800 801 801 802 802 803 803 803 803 804 804 805 806 806 806 806 806 806 806 807 809
799 799 798 799 798 797 797 797 796 796 796 796 796 797 797 798 796 795 796 796 797 798 799 800 800 801 802 802 802 802 802 803 804 804 805 805 805 805 805 805 806 806
800 800 800 800 800 800 799 798 798 797 796 796 796 796 797 797 797 798 797 795 795 797 800 801 800 800 800 800 801 801 801 801 802 803 803 804 804 805 805 805 805 805